[[{"header":{"parameterUnit":"m.s-1","parameterCategory":2,"la1":30.2991,"la2":30.254,"lo1":-89.0895,"lo2":-89.0444,"dy":0.0017,"dx":0.0017,"nx":28,"ny":28,"refTime":"2024-04-10T21:00:00:Z","depth":"0","parameterNumber":2,"parameterNumberName":"U-component_of_CURRENTS"},"data":[0,0,0,0,0,0,0,0,0,0,0,0,0,0,0,0,0,0,0,0,0,0,0,0,0,0,0,0,0,0,0,0,0,0,0,0,0,0,0,0,0,0,0,0,0,0,0,0,0,0,0,0,0,0,0,0,0,0,0.2944,0.2944,0,0.2914,0.2913,0.2913,0.2867,0.2866,0.2866,0.2865,0.2846,0.2846,0.2846,0,0,0,0,0,0,0,0,0,0,0,0,0,0.2958,0.2957,0.2944,0.2944,0.2944,0.2914,0.2913,0.2912,0.2867,0.2866,0.2866,0.2865,0.2846,0.2846,0.2846,0,0,0,0,0,0,0,0,0,0,0,0,0,0.294,0.2957,0.2944,0.2919,0.2917,0.2914,0.2913,0.2912,0.2867,0.2866,0.2866,0.2865,0.2846,0.2846,0.2846,0.2863,0,0,0.2846,0.2846,0,0,0,0,0,0,0,0,0.2941,0.2939,0.2923,0.2921,0.2918,0.2895,0.2911,0.2897,0.2867,0.2883,0.2865,0.2864,0.2866,0.2864,0.2857,0.2863,0.2862,0.2846,0.2846,0.2846,0.2846,0,0,0,0,0,0,0,0.2942,0.294,0.2929,0.2923,0.292,0.2908,0.2905,0.2908,0.2878,0.2882,0.2879,0.288,0.2864,0.2857,0.2856,0.2861,0.2846,0.2846,0.2846,0.2846,0.2852,0.2852,0,0,0,0,0,0,0.2952,0.2941,0.293,0.2929,0.2931,0.2909,0.2905,0.2902,0.2878,0.2874,0.2881,0.2878,0.2857,0.2856,0.2855,0.287,0.2846,0.2846,0.2846,0.2852,0.2852,0.2852,0,0,0,0,0,0,0.2952,0.2951,0.2932,0.2936,0.2933,0.291,0.2907,0.2902,0.2894,0.2877,0.2873,0.2879,0.2856,0.2855,0.2847,0.2869,0.2846,0.2846,0.2851,0.2852,0.2852,0.2902,0,0,0,0,0,0,0.2953,0.2951,0.2946,0.2937,0.2934,0.2929,0.2908,0.2902,0.2897,0.2893,0.2875,0.2872,0.2856,0.2847,0.2847,0.2868,0.2846,0.2851,0.2852,0.2852,0.29,0.2903,0.2907,0,0,0,0,0,0.2953,0.2947,0.2946,0.2944,0.2929,0.293,0.2927,0.2905,0.2898,0.2896,0.2877,0.2872,0.2849,0.2848,0.2848,0.2869,0.2851,0.2852,0.2852,0.2898,0.2903,0.2906,0,0,0,0,0,0,0.295,0.2942,0.294,0.2932,0.2934,0.2923,0.2916,0.2913,0.2897,0.2894,0.2874,0.287,0.2879,0.286,0.2859,0.2868,0.285,0.2851,0.2886,0.289,0.2893,0.2915,0.2846,0,0,0,0,0,0.295,0.2941,0.2942,0.2937,0.2939,0.2933,0.2929,0.2925,0.2914,0.2906,0.2899,0.2885,0.2881,0.2873,0.2871,0.2873,0.286,0.2885,0.2888,0.2891,0.2907,0.2898,0.2903,0.2853,0.2853,0.2853,0,0,0.2952,0.2943,0.2941,0.2936,0.2933,0.2938,0.2927,0.293,0.2941,0.2909,0.2916,0.2908,0.2887,0.289,0.2891,0.2874,0.2895,0.2891,0.2894,0.2909,0.2899,0.2904,0.2908,0.2853,0.2853,0.2853,0,0,0.295,0.2943,0.2937,0.2939,0.2942,0.2943,0.295,0.2953,0.2957,0.2964,0.2949,0.295,0.2937,0.293,0.2922,0.2943,0.2923,0.2939,0.2965,0.2956,0.296,0.2964,0.2942,0.2944,0.2928,0.2928,0.2928,0,0.2949,0.294,0.2938,0.2936,0.2937,0.295,0.2955,0.2968,0.2972,0.298,0.2971,0.297,0.296,0.2964,0.2969,0.2956,0.2937,0.2953,0.2962,0.2966,0.2969,0.2945,0.2947,0.2931,0.293,0.293,0.293,0,0.2949,0.2939,0.2939,0.2939,0.2947,0.2951,0.2976,0.2996,0.3007,0.3016,0.3037,0.3025,0.3018,0.302,0.3001,0.302,0.2994,0.2979,0.2956,0.2977,0.295,0.2951,0.2934,0.2933,0.2933,0.2932,0,0,0.2931,0.2936,0.2931,0.2929,0.2946,0.2951,0.2987,0.3012,0.3035,0.3053,0.3074,0.308,0.3081,0.3073,0.3059,0.3056,0.3062,0.3027,0.3025,0.3014,0.3029,0.2953,0.2945,0.3042,0.3043,0.3043,0.2997,0,0.2923,0.2917,0.2926,0.2928,0.2927,0.2956,0.2984,0.3016,0.3048,0.3079,0.3092,0.3109,0.3098,0.3099,0.3097,0.3084,0.3066,0.3075,0.3003,0.3001,0.2939,0.2945,0.2819,0.2763,0.2997,0.2997,0.2997,0,0.2901,0.2901,0.2902,0.2914,0.2918,0.2931,0.2976,0.3006,0.3063,0.3088,0.3118,0.3135,0.3157,0.3136,0.3122,0.3125,0.3081,0.3062,0.3059,0.2977,0.2927,0.2781,0.2754,0.2703,0.2997,0.2997,0.2997,0,0.2866,0.2872,0.287,0.2874,0.2904,0.2919,0.2943,0.3002,0.3034,0.3102,0.3129,0.3158,0.3166,0.3148,0.3119,0.3119,0.3088,0.3075,0.296,0.2954,0.2828,0.2809,0.2752,0.3045,0.3045,0.3045,0.3045,0,0.2828,0.2818,0.2853,0.2849,0.2859,0.2893,0.292,0.2963,0.3025,0.3049,0.3126,0.3149,0.3169,0.3159,0.3128,0.3046,0.3085,0.2972,0.294,0.2838,0.2822,0.2757,0.2751,0.3044,0.3044,0.3044,0.3045,0,0.2766,0.2787,0.2791,0.283,0.2837,0.2848,0.2894,0.292,0.2991,0.3031,0.3054,0.3135,0.3123,0.3121,0.3083,0.3034,0.289,0.2928,0.2804,0.2759,0.2609,0.261,0.2418,0.2359,0.2805,0.2803,0.2801,0,0.2723,0.2721,0.2769,0.2772,0.2783,0.2804,0.2817,0.289,0.2917,0.3007,0.3015,0.3049,0.303,0.2975,0.2902,0.2819,0.277,0.2661,0.2642,0.2586,0.2565,0.248,0.244,0.2489,0.2485,0.2481,0.2478,0,0.2654,0.2685,0.2701,0.2711,0.2724,0.2738,0.2761,0.2773,0.2848,0.2867,0.287,0.2871,0.2839,0.2711,0.2645,0.2594,0.2544,0.2587,0.2558,0.2341,0.2213,0.2145,0.2538,0.2448,0.2451,0.2453,0.2455,0.2456,0.261,0.2614,0.2644,0.2633,0.265,0.2642,0.2599,0.2622,0.2616,0.258,0.2672,0.2594,0.256,0.2448,0.2396,0.2261,0.2283,0.2187,0.22,0.2124,0.204,0.2364,0.2225,0.2226,0.2228,0.2229,0.223,0,0.2527,0.2542,0.255,0.254,0.2498,0.2542,0.2526,0.2443,0.235,0.2366,0.231,0.2233,0.2125,0.2107,0.1995,0.1901,0.1829,0.1859,0.1731,0.1722,0.2029,0.1991,0.1757,0.1757,0.1757,0.1757,0.1757,0.1758,0.2498,0.2461,0.2461,0.237,0.2352,0.2241,0.2195,0.2094,0.2055,0.1906,0.1835,0.1843,0.1902,0.1828,0.1713,0.1672,0.1581,0.1455,0.151,0.1766,0.1798,0.1829,0.1793,0.1522,0.1521,0.1109,0.1106,0.1104]},{"header":{"parameterUnit":"m.s-1","parameterCategory":2,"la1":30.2991,"la2":30.254,"lo1":-89.0895,"lo2":-89.0444,"dy":0.0017,"dx":0.0017,"nx":28,"ny":28,"refTime":"2024-04-10T21:00:00:Z","depth":"0","parameterNumber":3,"parameterNumberName":"V-component_of_CURRENTS"},"data":[0,0,0,0,0,0,0,0,0,0,0,0,0,0,0,0,0,0,0,0,0,0,0,0,0,0,0,0,0,0,0,0,0,0,0,0,0,0,0,0,0,0,0,0,0,0,0,0,0,0,0,0,0,0,0,0,0,0,0.0005,0.0005,0,0.0013,0.0013,0.0013,0.0001,0.0001,0.0001,0.0001,-0.0046,-0.0047,-0.0048,0,0,0,0,0,0,0,0,0,0,0,0,0,-0.003,-0.0029,0.0005,0.0005,0.0005,0.0013,0.0013,0.0013,0.0002,0.0001,0.0001,0.0001,-0.0046,-0.0047,-0.0048,0,0,0,0,0,0,0,0,0,0,0,0,0,-0.0019,-0.0029,0.0005,0.0002,0.0002,0.0013,0.0013,0.0013,0.0002,0.0001,0.0001,0.0,-0.0045,-0.0047,-0.0048,-0.0049,0,0,-0.0053,-0.0053,0,0,0,0,0,0,0,0,-0.0019,-0.0018,0.0002,0.0002,0.0002,0.0007,-0.0016,-0.001,0.0002,-0.0,0.0001,0.0,-0.0032,-0.0034,-0.0034,-0.0051,-0.0053,-0.0053,-0.0054,-0.0054,-0.0055,0,0,0,0,0,0,0,-0.002,-0.0018,0.0007,0.0002,0.0002,-0.0003,-0.0002,-0.0015,-0.0016,-0.0,-0.0,0.0003,-0.0033,-0.0032,-0.0035,-0.0054,-0.0053,-0.0054,-0.0055,-0.0056,-0.0052,-0.0051,0,0,0,0,0,0,-0.0017,-0.0019,0.0006,0.0007,-0.0008,-0.0002,-0.0001,0.0005,-0.0015,-0.0017,0.0004,0.0003,-0.0029,-0.0033,-0.0037,-0.0023,-0.0054,-0.0056,-0.0057,-0.0053,-0.0052,-0.0051,0,0,0,0,0,0,-0.0017,-0.0014,0.0006,-0.0005,-0.0002,-0.0,0.0006,0.0005,0.0008,-0.0011,-0.0015,0.0007,-0.003,-0.0035,-0.0041,-0.0025,-0.0056,-0.0058,-0.0054,-0.0053,-0.0051,-0.0005,0,0,0,0,0,0,-0.0018,-0.0015,-0.0006,-0.0004,-0.0001,0.0023,0.0006,0.0006,0.0012,0.0011,-0.0009,-0.0014,-0.003,-0.0039,-0.0043,-0.0028,-0.0059,-0.0056,-0.0054,-0.0052,-0.0008,-0.0003,0.0002,0,0,0,0,0,-0.002,0.0001,-0.0006,-0.0002,0.001,0.0024,0.0026,0.0024,0.0012,0.0022,0.0006,-0.0013,-0.003,-0.0039,-0.0044,-0.0029,-0.0056,-0.0054,-0.0052,-0.001,-0.0004,0.0002,0,0,0,0,0,0,-0.0007,0.0002,-0.0005,0.0017,0.0022,0.0023,0.0037,0.0028,0.0023,0.002,-0.0006,-0.0011,-0.001,-0.0024,-0.0034,-0.0021,-0.0044,-0.0042,-0.0011,-0.0004,0.0001,0.0024,-0.006,0,0,0,0,0,-0.0001,0.0015,0.0018,0.0035,0.0041,0.0037,0.0043,0.0039,0.0034,0.0032,0.0015,0.0002,-0.0004,-0.0009,-0.0018,-0.0014,-0.0018,-0.0005,0.0,0.0005,0.0022,0.0031,0.0038,-0.0044,-0.0044,-0.0044,0,0,0.0006,0.0015,0.0022,0.0038,0.0043,0.0062,0.004,0.0054,0.0064,0.0027,0.0033,0.0016,0.0001,0.0007,0.0007,-0.0003,0.0025,0.0008,0.0011,0.0026,0.0034,0.0042,0.0049,-0.0042,-0.0042,-0.0043,0,0,0.0037,0.0039,0.0065,0.0073,0.0086,0.0085,0.009,0.009,0.0086,0.0087,0.0066,0.0063,0.0046,0.0046,0.0042,0.0072,0.0051,0.0066,0.0111,0.0119,0.0126,0.0132,0.013,0.0136,0.007,0.007,0.007,0,0.0047,0.0077,0.0074,0.0102,0.0116,0.0097,0.0125,0.0122,0.0115,0.0121,0.0096,0.0094,0.007,0.0095,0.0101,0.0085,0.0082,0.0085,0.0126,0.0132,0.0138,0.0134,0.014,0.0072,0.0072,0.0072,0.0072,0,0.0097,0.0119,0.0137,0.0163,0.0176,0.0198,0.0194,0.0198,0.0183,0.0178,0.019,0.0164,0.0169,0.0157,0.0133,0.0166,0.0148,0.0129,0.011,0.0149,0.0143,0.0148,0.0076,0.0075,0.0074,0.0074,0,0,0.0129,0.0165,0.0173,0.0194,0.0211,0.023,0.0246,0.0265,0.0286,0.0267,0.0301,0.0276,0.0264,0.026,0.0235,0.0235,0.0254,0.02,0.0199,0.0199,0.0269,0.0254,0.0257,0.024,0.0241,0.0242,0.0246,0,0.0171,0.0231,0.0237,0.0289,0.0318,0.0311,0.0334,0.0343,0.0339,0.0365,0.0345,0.0363,0.0303,0.0312,0.0303,0.0274,0.0271,0.0255,0.0232,0.0232,0.0214,0.0264,0.027,0.0275,0.0251,0.0252,0.0252,0,0.0224,0.0256,0.0314,0.0356,0.0371,0.0396,0.0437,0.0454,0.0475,0.0474,0.0486,0.0469,0.0478,0.0419,0.0393,0.0385,0.0334,0.03,0.0299,0.0278,0.0227,0.0234,0.0284,0.0233,0.026,0.0259,0.0259,0,0.0256,0.0313,0.0361,0.0376,0.0418,0.0445,0.0468,0.0491,0.0524,0.0555,0.0589,0.0579,0.059,0.0539,0.0456,0.043,0.0423,0.0378,0.0318,0.0315,0.0314,0.031,0.0315,0.0363,0.0363,0.0363,0.0363,0,0.0303,0.0341,0.0382,0.0409,0.0474,0.0488,0.0556,0.0572,0.0622,0.0688,0.0655,0.071,0.062,0.0599,0.0509,0.0439,0.0464,0.0346,0.0327,0.0329,0.0326,0.0274,0.0236,0.0363,0.0363,0.0363,0.0363,0,0.0332,0.0356,0.0414,0.0468,0.0491,0.0539,0.0616,0.0668,0.0702,0.0794,0.0816,0.082,0.0795,0.0695,0.0613,0.0515,0.0414,0.0404,0.0408,0.0389,0.0277,0.0241,0.0232,0.0215,0.035,0.035,0.035,0,0.0354,0.0387,0.0457,0.05,0.0529,0.06,0.0656,0.0705,0.0772,0.0872,0.0933,0.0933,0.0953,0.0824,0.0656,0.0512,0.0431,0.0405,0.0355,0.0295,0.0241,0.0214,0.0198,0.0365,0.0365,0.0365,0.0365,0,0.0397,0.0418,0.0465,0.0549,0.0617,0.0697,0.0785,0.0853,0.0933,0.1014,0.1122,0.1148,0.103,0.0899,0.0684,0.0568,0.038,0.04,0.0347,0.0273,0.0237,0.0203,0.0327,0.0365,0.0365,0.0365,0.0365,0.0365,0.0428,0.0467,0.0528,0.0611,0.069,0.0795,0.0873,0.0976,0.1096,0.1226,0.1246,0.1295,0.1106,0.0824,0.0667,0.0389,0.0385,0.0295,0.0262,0.0244,0.0221,0.0342,0.0349,0.0349,0.0349,0.0349,0.0349,0,0.0471,0.0515,0.0591,0.0691,0.0782,0.0819,0.0963,0.105,0.12,0.1301,0.1381,0.1326,0.1091,0.0834,0.047,0.0288,0.0218,0.0191,0.0159,0.0152,0.0272,0.0266,0.0246,0.0246,0.0246,0.0246,0.0246,0.0246,0.0496,0.0566,0.0603,0.0752,0.083,0.0958,0.1046,0.1175,0.1274,0.1395,0.1429,0.1447,0.129,0.0667,0.0282,0.0186,0.0083,0.0044,0.0006,0.0082,0.0089,0.0096,0.0083,0.0025,0.0024,-0.009,-0.0091,-0.0092]}],[{"header":{"parameterUnit":"m.s-1","parameterCategory":2,"la1":30.2991,"la2":30.254,"lo1":-89.0895,"lo2":-89.0444,"dy":0.0017,"dx":0.0017,"nx":28,"ny":28,"refTime":"2024-04-10T21:00:00:Z","depth":"2","parameterNumber":2,"parameterNumberName":"U-component_of_CURRENTS"},"data":[0,0,0,0,0,0,0,0,0,0,0,0,0,0,0,0,0,0,0,0,0,0,0,0,0,0,0,0,0,0,0,0,0,0,0,0,0,0,0,0,0,0,0,0,0,0,0,0,0,0,0,0,0,0,0,0,0,0,0.2019,0.202,0,0.2043,0.2043,0.2042,0.2039,0.204,0.204,0.204,0.2051,0.2051,0.2051,0,0,0,0,0,0,0,0,0,0,0,0,0,0.1993,0.1993,0.2019,0.202,0.2021,0.2043,0.2043,0.2042,0.2039,0.204,0.204,0.204,0.2051,0.2051,0.2051,0,0,0,0,0,0,0,0,0,0,0,0,0,0.2003,0.1993,0.2018,0.2027,0.2028,0.2043,0.2043,0.2042,0.2039,0.204,0.204,0.204,0.2051,0.2051,0.2051,0.2045,0,0,0.2052,0.2052,0,0,0,0,0,0,0,0,0.2002,0.2003,0.2025,0.2026,0.2028,0.2045,0.2038,0.2045,0.2039,0.2028,0.204,0.204,0.2052,0.2052,0.2046,0.2045,0.2046,0.2052,0.2052,0.2052,0.2052,0,0,0,0,0,0,0,0.2001,0.2002,0.2021,0.2026,0.2028,0.2038,0.2039,0.2039,0.2032,0.2029,0.203,0.2044,0.2052,0.2046,0.2047,0.2046,0.2052,0.2052,0.2052,0.2052,0.2097,0.2098,0,0,0,0,0,0,0.2011,0.2001,0.202,0.2023,0.2024,0.2039,0.2039,0.2033,0.2032,0.2035,0.2044,0.2044,0.2046,0.2046,0.2047,0.2087,0.2052,0.2052,0.2052,0.2096,0.2097,0.2098,0,0,0,0,0,0,0.201,0.2011,0.202,0.2019,0.2022,0.2039,0.2032,0.2034,0.2046,0.2045,0.2046,0.2058,0.2046,0.2047,0.2059,0.2086,0.2052,0.2052,0.2094,0.2096,0.2098,0.2136,0,0,0,0,0,0,0.2008,0.201,0.2022,0.2019,0.2023,0.2031,0.2033,0.2034,0.2057,0.2057,0.2058,0.2058,0.2046,0.2059,0.2059,0.2085,0.2052,0.2093,0.2095,0.2097,0.2134,0.2139,0.2144,0,0,0,0,0,0.2007,0.2017,0.2022,0.2026,0.2033,0.2032,0.2033,0.2043,0.2058,0.2056,0.2064,0.2059,0.2073,0.2059,0.2059,0.2086,0.2092,0.2094,0.2097,0.2131,0.2138,0.2144,0,0,0,0,0,0,0.2007,0.2019,0.2023,0.2035,0.2037,0.2034,0.2045,0.2055,0.206,0.207,0.2065,0.2065,0.2092,0.2082,0.2067,0.2107,0.2085,0.2088,0.2112,0.2118,0.2123,0.2132,0.2052,0,0,0,0,0,0.2015,0.2027,0.2031,0.2041,0.2042,0.2048,0.2057,0.2064,0.2067,0.207,0.2075,0.2085,0.2099,0.2102,0.2109,0.2121,0.2117,0.2142,0.2148,0.2152,0.216,0.2177,0.2184,0.2106,0.2106,0.2106,0,0,0.2019,0.203,0.2036,0.2044,0.2044,0.2047,0.2052,0.2066,0.208,0.2072,0.2093,0.2106,0.2109,0.2128,0.2139,0.2123,0.2171,0.2155,0.2159,0.2165,0.2181,0.2188,0.2195,0.2108,0.2108,0.2108,0,0,0.2027,0.2036,0.2047,0.205,0.2068,0.2065,0.2075,0.2081,0.2094,0.2112,0.2123,0.2149,0.2157,0.2168,0.2174,0.2211,0.2203,0.2222,0.2247,0.2264,0.227,0.2276,0.2272,0.2277,0.2217,0.2217,0.2217,0,0.2057,0.2038,0.205,0.2059,0.2065,0.2074,0.2077,0.2091,0.2107,0.2128,0.2125,0.2177,0.2176,0.2216,0.2228,0.2223,0.2226,0.2222,0.227,0.2276,0.2281,0.2275,0.228,0.2219,0.2219,0.2219,0.2219,0,0.2036,0.2051,0.2053,0.2064,0.2074,0.2074,0.2093,0.2112,0.2134,0.2157,0.221,0.2217,0.2246,0.2258,0.2251,0.23,0.2287,0.2279,0.2253,0.2291,0.2283,0.2287,0.2223,0.2222,0.2221,0.2221,0,0,0.2049,0.2047,0.2052,0.2061,0.2074,0.208,0.2107,0.2131,0.2162,0.22,0.2244,0.2281,0.2305,0.2314,0.2324,0.2341,0.2371,0.2328,0.2328,0.2321,0.24,0.2313,0.231,0.2375,0.2377,0.2378,0.2376,0,0.2037,0.2049,0.2046,0.2062,0.2065,0.2084,0.2105,0.2147,0.2176,0.2222,0.2273,0.2323,0.2321,0.2349,0.2365,0.2382,0.2387,0.2372,0.2367,0.2367,0.2283,0.2314,0.2142,0.212,0.238,0.2381,0.2381,0,0.2009,0.2025,0.2027,0.2064,0.2066,0.2076,0.2112,0.2141,0.2212,0.2253,0.2318,0.2355,0.2416,0.2399,0.2439,0.2433,0.2418,0.242,0.2419,0.233,0.2289,0.2126,0.2118,0.2388,0.2388,0.2387,0.2387,0,0.1985,0.2018,0.2016,0.2021,0.2054,0.2067,0.2094,0.2151,0.2191,0.2289,0.233,0.2404,0.2445,0.2462,0.2465,0.246,0.2489,0.2475,0.238,0.2373,0.2221,0.2198,0.2487,0.2487,0.2487,0.2487,0.2487,0,0.1949,0.197,0.2006,0.1999,0.2028,0.2063,0.2098,0.2147,0.2217,0.2268,0.2351,0.2392,0.2465,0.2485,0.248,0.2443,0.2497,0.2391,0.2372,0.2227,0.2206,0.2436,0.243,0.2487,0.2487,0.2487,0.2487,0,0.1916,0.1932,0.1956,0.1992,0.2008,0.2038,0.2105,0.2125,0.2211,0.2274,0.2318,0.2403,0.2436,0.2469,0.2493,0.2446,0.2433,0.2397,0.2214,0.2174,0.23,0.2296,0.2297,0.2294,0.2292,0.229,0.2288,0,0.1887,0.1884,0.1944,0.1956,0.1966,0.2017,0.2033,0.2123,0.2146,0.2263,0.2277,0.2351,0.2364,0.2368,0.2329,0.2299,0.2365,0.2104,0.206,0.2301,0.2283,0.2284,0.2283,0.1872,0.1867,0.1863,0.1859,0,0.1835,0.1864,0.1877,0.1904,0.1924,0.1964,0.1997,0.2019,0.2112,0.2149,0.2182,0.2209,0.2225,0.2118,0.2094,0.2054,0.2102,0.2017,0.2325,0.1945,0.1899,0.1882,0.1896,0.1823,0.1826,0.1829,0.1831,0.1832,0.1807,0.1819,0.1831,0.1845,0.1875,0.1885,0.1866,0.1897,0.1919,0.1939,0.2025,0.199,0.1998,0.1865,0.179,0.1733,0.1873,0.1785,0.1798,0.1816,0.1765,0.1717,0.1597,0.1599,0.1601,0.1603,0.1604,0,0.174,0.1767,0.1767,0.178,0.175,0.1806,0.1807,0.1755,0.1716,0.1771,0.1771,0.1616,0.1538,0.1551,0.14,0.1373,0.1371,0.1319,0.1309,0.1346,0.1379,0.1307,0.1016,0.1015,0.1013,0.1011,0,0,0.1729,0.1699,0.1687,0.163,0.1636,0.1577,0.1551,0.1501,0.1499,0.1441,0.1406,0.1503,0.1525,0.1269,0.1217,0.1094,0.122,0.1051,0.1525,0.1554,0.1585,0.165,0.1581,0,0,0,0,0]},{"header":{"parameterUnit":"m.s-1","parameterCategory":2,"la1":30.2991,"la2":30.254,"lo1":-89.0895,"lo2":-89.0444,"dy":0.0017,"dx":0.0017,"nx":28,"ny":28,"refTime":"2024-04-10T21:00:00:Z","depth":"2","parameterNumber":3,"parameterNumberName":"V-component_of_CURRENTS"},"data":[0,0,0,0,0,0,0,0,0,0,0,0,0,0,0,0,0,0,0,0,0,0,0,0,0,0,0,0,0,0,0,0,0,0,0,0,0,0,0,0,0,0,0,0,0,0,0,0,0,0,0,0,0,0,0,0,0,0,0.0208,0.0208,0,0.0208,0.0208,0.0208,0.0194,0.0194,0.0193,0.0193,0.0163,0.0162,0.0162,0,0,0,0,0,0,0,0,0,0,0,0,0,0.0167,0.0168,0.0208,0.0208,0.0208,0.0208,0.0208,0.0208,0.0194,0.0194,0.0193,0.0193,0.0163,0.0162,0.0162,0,0,0,0,0,0,0,0,0,0,0,0,0,0.0178,0.0168,0.0208,0.0201,0.02,0.0208,0.0208,0.0208,0.0194,0.0194,0.0193,0.0193,0.0163,0.0162,0.0162,0.0169,0,0,0.016,0.016,0,0,0,0,0,0,0,0,0.0177,0.0179,0.0202,0.0201,0.02,0.02,0.0182,0.0193,0.0194,0.0197,0.0193,0.0192,0.0173,0.0171,0.0173,0.0168,0.0167,0.016,0.0159,0.0159,0.0159,0,0,0,0,0,0,0,0.0176,0.0179,0.0208,0.0202,0.0201,0.0187,0.0189,0.0184,0.0188,0.0197,0.0196,0.0195,0.0172,0.0174,0.0172,0.0166,0.016,0.0159,0.0159,0.0158,0.0161,0.0161,0,0,0,0,0,0,0.0178,0.0179,0.0208,0.0208,0.0187,0.0189,0.019,0.0201,0.0188,0.0186,0.0196,0.0195,0.0176,0.0173,0.0171,0.0179,0.0159,0.0158,0.0158,0.016,0.0161,0.0161,0,0,0,0,0,0,0.0178,0.0181,0.0208,0.0192,0.0194,0.019,0.0202,0.0201,0.02,0.0188,0.0185,0.0195,0.0175,0.0172,0.017,0.0177,0.0158,0.0158,0.016,0.016,0.0161,0.0193,0,0,0,0,0,0,0.0177,0.0181,0.0185,0.0193,0.0196,0.0217,0.0203,0.0202,0.0201,0.0199,0.0186,0.0183,0.0174,0.0172,0.017,0.0176,0.0157,0.0159,0.016,0.0161,0.0192,0.0195,0.0198,0,0,0,0,0,0.0175,0.019,0.0186,0.0189,0.0203,0.0218,0.0218,0.0212,0.0201,0.0207,0.0197,0.0183,0.0176,0.0172,0.0169,0.0175,0.0159,0.016,0.0161,0.019,0.0194,0.0198,0,0,0,0,0,0,0.0175,0.019,0.0185,0.0203,0.0209,0.0215,0.0221,0.0213,0.0211,0.0205,0.0191,0.0188,0.0188,0.0179,0.0175,0.0179,0.0164,0.0165,0.0188,0.0191,0.0194,0.0207,0.0156,0,0,0,0,0,0.0176,0.019,0.0199,0.0212,0.0219,0.0218,0.022,0.0216,0.0216,0.0214,0.0205,0.0195,0.0192,0.0189,0.0184,0.0188,0.0177,0.0189,0.0193,0.0195,0.0205,0.02,0.0204,0.0165,0.0165,0.0165,0,0,0.0177,0.0188,0.0194,0.0212,0.0218,0.0235,0.0219,0.0227,0.0234,0.0211,0.0218,0.0205,0.0195,0.02,0.0199,0.0192,0.0198,0.0197,0.0199,0.0207,0.0201,0.0205,0.0209,0.0165,0.0165,0.0165,0,0,0.0194,0.0201,0.0219,0.0229,0.0238,0.0242,0.0245,0.025,0.0248,0.0251,0.0236,0.0232,0.0224,0.0223,0.022,0.0238,0.0215,0.0231,0.0258,0.0253,0.0256,0.0259,0.024,0.0241,0.0233,0.0233,0.0233,0,0.0187,0.0222,0.0225,0.0247,0.0259,0.0249,0.0272,0.0271,0.027,0.0274,0.0256,0.0253,0.0239,0.0253,0.0256,0.0246,0.0233,0.0244,0.0257,0.026,0.0262,0.0242,0.0242,0.0235,0.0234,0.0234,0.0234,0,0.0228,0.0246,0.0262,0.0288,0.0299,0.0318,0.0322,0.0326,0.0316,0.0312,0.0316,0.0299,0.0301,0.029,0.0277,0.0288,0.0269,0.0261,0.0248,0.0268,0.0245,0.0245,0.0237,0.0236,0.0236,0.0236,0,0,0.0237,0.028,0.0285,0.0305,0.0324,0.0342,0.0357,0.0375,0.039,0.0372,0.0395,0.0375,0.0361,0.0357,0.0338,0.0329,0.0323,0.0302,0.0301,0.0284,0.03,0.0279,0.0276,0.0314,0.0315,0.0315,0.0274,0,0.0266,0.0317,0.0331,0.0374,0.0402,0.0403,0.0424,0.0431,0.0429,0.0445,0.0422,0.0432,0.0388,0.0391,0.0374,0.0344,0.0326,0.0334,0.0283,0.0282,0.0261,0.0277,0.028,0.0243,0.0274,0.0274,0.0274,0,0.0307,0.0337,0.0386,0.0427,0.0441,0.0462,0.05,0.0516,0.0526,0.0526,0.0523,0.0504,0.0494,0.0454,0.0403,0.0409,0.0358,0.0323,0.0321,0.0293,0.0261,0.023,0.0241,0.0273,0.0273,0.0273,0.0273,0,0.0328,0.0376,0.042,0.0434,0.0477,0.0499,0.0522,0.054,0.057,0.0581,0.0604,0.0574,0.0575,0.0512,0.0431,0.042,0.0369,0.0346,0.0275,0.0272,0.0262,0.0258,0.0309,0.0309,0.0309,0.0309,0.0309,0,0.0361,0.0393,0.0433,0.0459,0.0515,0.0529,0.0586,0.0601,0.0638,0.0689,0.065,0.0678,0.059,0.0547,0.0459,0.0369,0.0389,0.0286,0.0267,0.0272,0.0269,0.0288,0.0286,0.0307,0.0308,0.0308,0.0308,0,0.0377,0.0402,0.0455,0.0507,0.0527,0.0567,0.0639,0.0683,0.0705,0.0773,0.0785,0.0764,0.0706,0.0604,0.0505,0.0415,0.0326,0.0285,0.0288,0.0271,0.0222,0.0222,0.0206,0.0206,0.0205,0.0204,0.0203,0,0.0393,0.0421,0.0492,0.0531,0.0558,0.062,0.0672,0.0715,0.077,0.0828,0.0869,0.0833,0.0816,0.0652,0.0493,0.0339,0.0319,0.0232,0.0213,0.0231,0.0214,0.0216,0.0217,0.0204,0.0203,0.0203,0.0203,0,0.0422,0.0445,0.0493,0.0572,0.0633,0.071,0.0784,0.084,0.0902,0.0949,0.0998,0.0985,0.0838,0.0682,0.0468,0.0357,0.0257,0.0218,0.0249,0.0231,0.0226,0.021,0.0212,0.0199,0.0199,0.02,0.02,0.02,0.0447,0.0484,0.0547,0.0623,0.0696,0.079,0.0854,0.0935,0.102,0.1091,0.1079,0.1053,0.0887,0.0607,0.0426,0.0228,0.0239,0.016,0.0162,0.0165,0.0174,0.0168,0.0131,0.0131,0.0131,0.0131,0.0131,0,0.0481,0.0525,0.0596,0.069,0.0769,0.0806,0.0925,0.0985,0.1078,0.1133,0.1155,0.0983,0.0813,0.062,0.0332,0.0163,0.0149,0.0099,0.0124,0.0129,0.0133,0.0141,0.0088,0.0088,0.0087,0.0087,0,0,0.0502,0.0568,0.0603,0.0731,0.08,0.0902,0.0969,0.1055,0.1113,0.1148,0.1129,0.1096,0.0872,0.0655,0.0427,0.0262,0.0232,0.022,0.027,0.0332,0.0338,0.0181,0.02,0,0,0,0,0]}],[{"header":{"parameterUnit":"m.s-1","parameterCategory":2,"la1":30.2991,"la2":30.254,"lo1":-89.0895,"lo2":-89.0444,"dy":0.0017,"dx":0.0017,"nx":28,"ny":28,"refTime":"2024-04-10T21:00:00:Z","depth":"4","parameterNumber":2,"parameterNumberName":"U-component_of_CURRENTS"},"data":[0,0,0,0,0,0,0,0,0,0,0,0,0,0,0,0,0,0,0,0,0,0,0,0,0,0,0,0,0,0,0,0,0,0,0,0,0,0,0,0,0,0,0,0,0,0,0,0,0,0,0,0,0,0,0,0,0,0,0.0939,0.094,0,0.1012,0.1013,0.1013,0.1068,0.1068,0.1069,0.1069,0.1127,0.1128,0.1129,0,0,0,0,0,0,0,0,0,0,0,0,0,0.0877,0.0877,0.0939,0.094,0.0941,0.1012,0.1013,0.1014,0.1068,0.1068,0.1069,0.107,0.1127,0.1128,0.1129,0,0,0,0,0,0,0,0,0,0,0,0,0,0.0921,0.0877,0.0939,0.0977,0.0981,0.1012,0.1013,0.1014,0.1067,0.1068,0.1069,0.107,0.1126,0.1128,0.1129,0.1121,0,0,0.1134,0.1134,0,0,0,0,0,0,0,0,0.0918,0.0923,0.0971,0.0975,0.0979,0.1033,0.1012,0.1049,0.1067,0.1034,0.1069,0.107,0.1094,0.1098,0.1109,0.1124,0.1126,0.1134,0.1135,0.1135,0.1136,0,0,0,0,0,0,0,0.0915,0.092,0.0967,0.0972,0.0977,0.1001,0.1008,0.1019,0.1057,0.1037,0.1041,0.1051,0.1096,0.1107,0.111,0.1127,0.1134,0.1135,0.1136,0.1137,0.123,0.1231,0,0,0,0,0,0,0.0906,0.0917,0.0964,0.0969,0.0952,0.1002,0.1009,0.1014,0.1057,0.1065,0.105,0.1053,0.1104,0.1109,0.1113,0.1176,0.1135,0.1137,0.1138,0.1228,0.123,0.1232,0,0,0,0,0,0,0.0904,0.0909,0.0962,0.0946,0.0955,0.1002,0.1006,0.1015,0.1054,0.1068,0.1075,0.1084,0.1105,0.1111,0.1146,0.1176,0.1137,0.1139,0.1226,0.1229,0.1231,0.1257,0,0,0,0,0,0,0.0902,0.0908,0.0921,0.0945,0.0955,0.0993,0.1006,0.1016,0.1057,0.1063,0.1099,0.1103,0.1106,0.1144,0.1148,0.1177,0.114,0.1224,0.1227,0.123,0.1254,0.1259,0.1264,0,0,0,0,0,0.0899,0.0908,0.0921,0.0928,0.0967,0.0993,0.1001,0.1036,0.1058,0.1075,0.1104,0.1104,0.1166,0.1146,0.115,0.1181,0.1223,0.1226,0.123,0.1251,0.1258,0.1264,0,0,0,0,0,0,0.0881,0.0915,0.093,0.0947,0.0975,0.1003,0.1027,0.1051,0.1088,0.11,0.1116,0.1122,0.1167,0.1171,0.1149,0.1219,0.1198,0.1202,0.1213,0.122,0.1225,0.1209,0.1141,0,0,0,0,0,0.0883,0.0904,0.0933,0.0949,0.0966,0.1002,0.1024,0.1046,0.1076,0.1095,0.1121,0.1151,0.118,0.1198,0.1218,0.125,0.1258,0.1276,0.1282,0.1286,0.1278,0.133,0.1339,0.1243,0.1243,0.1243,0,0,0.088,0.0902,0.0914,0.0949,0.0975,0.1001,0.1018,0.1053,0.1078,0.1093,0.1142,0.1169,0.1193,0.1232,0.1253,0.1242,0.1318,0.1291,0.1294,0.1283,0.1335,0.1344,0.1352,0.1246,0.1245,0.1245,0,0,0.0882,0.0905,0.0927,0.0953,0.0997,0.1014,0.103,0.1072,0.1099,0.1139,0.1165,0.1206,0.1247,0.1271,0.1287,0.1334,0.1344,0.1355,0.1369,0.1421,0.1429,0.1436,0.1455,0.1463,0.1359,0.1359,0.1359,0,0.0883,0.0906,0.0936,0.0965,0.0988,0.1023,0.1048,0.1076,0.1126,0.1149,0.1158,0.1242,0.1261,0.1314,0.1333,0.1344,0.1369,0.134,0.1427,0.1434,0.144,0.1458,0.1467,0.1361,0.136,0.136,0.136,0,0.0897,0.0926,0.094,0.0986,0.1013,0.1038,0.1076,0.1113,0.1148,0.1174,0.1238,0.127,0.1322,0.1342,0.1349,0.1417,0.1418,0.1426,0.1405,0.1451,0.1468,0.1477,0.1363,0.1362,0.1362,0.1361,0,0,0.0884,0.0938,0.0952,0.0973,0.1026,0.1047,0.1092,0.1136,0.1174,0.1221,0.1274,0.1324,0.1355,0.1376,0.1406,0.1444,0.1511,0.1459,0.1461,0.1468,0.1615,0.1472,0.1468,0.1547,0.1549,0.155,0.1605,0,0.0892,0.0932,0.0964,0.1008,0.1028,0.1074,0.111,0.1157,0.12,0.1259,0.1303,0.1365,0.1366,0.1411,0.1448,0.1505,0.1537,0.1494,0.1577,0.1578,0.1438,0.1474,0.1556,0.1611,0.1613,0.1615,0.1616,0,0.0903,0.0927,0.0962,0.1014,0.103,0.1065,0.1132,0.1172,0.125,0.129,0.1355,0.1399,0.1474,0.147,0.1566,0.1547,0.1579,0.1606,0.1609,0.1469,0.1452,0.1559,0.1632,0.1631,0.1629,0.1628,0.1627,0,0.0871,0.0931,0.0954,0.0973,0.1033,0.107,0.1114,0.1186,0.123,0.1329,0.1377,0.1457,0.1522,0.1577,0.1625,0.162,0.1715,0.1716,0.1608,0.1598,0.1699,0.1691,0.1774,0.1774,0.1774,0.1773,0.1773,0,0.0854,0.0887,0.0946,0.096,0.1006,0.1058,0.1122,0.1179,0.1266,0.132,0.1402,0.1455,0.1559,0.1619,0.1649,0.1643,0.1739,0.1603,0.1604,0.1708,0.17,0.1704,0.1696,0.1775,0.1775,0.1775,0.1774,0,0.0818,0.0858,0.0889,0.0956,0.0991,0.1026,0.1133,0.1168,0.1264,0.1344,0.1386,0.1489,0.156,0.1622,0.1713,0.1661,0.168,0.1654,0.1745,0.1751,0.1523,0.1515,0.1537,0.1533,0.1529,0.1525,0.1523,0,0.0797,0.0804,0.0881,0.0907,0.0947,0.1017,0.106,0.1163,0.1202,0.1345,0.1369,0.1477,0.1533,0.1543,0.1607,0.1631,0.1613,0.1599,0.1559,0.15,0.15,0.1498,0.1496,0.1517,0.1516,0.1515,0.1514,0,0.0748,0.0782,0.0805,0.0862,0.0913,0.0959,0.1033,0.1063,0.1176,0.1275,0.1336,0.1373,0.1434,0.1474,0.1495,0.1511,0.1595,0.1558,0.1566,0.1529,0.1476,0.1479,0.1481,0.15,0.1502,0.1503,0.1504,0,0.0718,0.0718,0.0757,0.0803,0.0861,0.0885,0.0936,0.099,0.105,0.1208,0.1225,0.1335,0.1433,0.1411,0.1434,0.1428,0.1406,0.1353,0.1372,0.1387,0.1306,0.1214,0.1155,0,0,0,0,0,0.068,0.0678,0.07,0.0738,0.0788,0.083,0.0906,0.0953,0.1074,0.1087,0.1158,0.1212,0.1245,0.1289,0.1252,0.134,0.1396,0.1286,0.1341,0.1426,0.1442,0.1356,0,0,0,0,0,0,0.0658,0.0676,0.0673,0.0677,0.0697,0.0742,0.0789,0.0863,0.0877,0.1009,0.1038,0.1125,0.1177,0.1268,0.1232,0.124,0.1243,0.1348,0.1344,0.1417,0.1431,0.1444,0.1361,0,0,0,0,0]},{"header":{"parameterUnit":"m.s-1","parameterCategory":2,"la1":30.2991,"la2":30.254,"lo1":-89.0895,"lo2":-89.0444,"dy":0.0017,"dx":0.0017,"nx":28,"ny":28,"refTime":"2024-04-10T21:00:00:Z","depth":"4","parameterNumber":3,"parameterNumberName":"V-component_of_CURRENTS"},"data":[0,0,0,0,0,0,0,0,0,0,0,0,0,0,0,0,0,0,0,0,0,0,0,0,0,0,0,0,0,0,0,0,0,0,0,0,0,0,0,0,0,0,0,0,0,0,0,0,0,0,0,0,0,0,0,0,0,0,0.0313,0.0313,0,0.032,0.032,0.032,0.0324,0.0324,0.0324,0.0324,0.0336,0.0336,0.0336,0,0,0,0,0,0,0,0,0,0,0,0,0,0.0274,0.0275,0.0313,0.0313,0.0313,0.032,0.032,0.032,0.0325,0.0324,0.0324,0.0324,0.0336,0.0336,0.0336,0,0,0,0,0,0,0,0,0,0,0,0,0,0.0288,0.0276,0.0313,0.0316,0.0316,0.032,0.032,0.032,0.0325,0.0324,0.0324,0.0324,0.0336,0.0336,0.0336,0.034,0,0,0.0338,0.0338,0,0,0,0,0,0,0,0,0.0287,0.0289,0.0315,0.0315,0.0316,0.0321,0.031,0.0327,0.0325,0.0322,0.0324,0.0324,0.0331,0.0332,0.0334,0.034,0.0341,0.0338,0.0338,0.0338,0.0339,0,0,0,0,0,0,0,0.0286,0.0289,0.0316,0.0315,0.0315,0.0306,0.0309,0.0313,0.0327,0.0322,0.0322,0.0322,0.0331,0.0333,0.0334,0.0341,0.0338,0.0338,0.0339,0.0339,0.0353,0.0353,0,0,0,0,0,0,0.0286,0.0288,0.0316,0.0316,0.03,0.0307,0.031,0.032,0.0327,0.0327,0.0322,0.0322,0.0332,0.0333,0.0334,0.0351,0.0338,0.0339,0.0339,0.0353,0.0353,0.0353,0,0,0,0,0,0,0.0285,0.0289,0.0315,0.0301,0.0304,0.0308,0.0319,0.032,0.0324,0.0327,0.0328,0.0326,0.0332,0.0334,0.0344,0.0351,0.0339,0.0339,0.0352,0.0353,0.0353,0.0376,0,0,0,0,0,0,0.0284,0.0289,0.0295,0.0302,0.0305,0.032,0.0319,0.032,0.0324,0.0324,0.033,0.0331,0.0333,0.0343,0.0344,0.0351,0.034,0.0352,0.0353,0.0353,0.0375,0.0377,0.0379,0,0,0,0,0,0.0283,0.0294,0.0296,0.0299,0.0314,0.032,0.0321,0.0323,0.0324,0.0327,0.0333,0.0331,0.0345,0.0344,0.0345,0.0352,0.0352,0.0353,0.0353,0.0374,0.0377,0.0379,0,0,0,0,0,0,0.0281,0.0295,0.0298,0.0313,0.0316,0.0321,0.0325,0.0325,0.0332,0.0334,0.0336,0.0338,0.0349,0.0345,0.0344,0.0355,0.0346,0.0347,0.0362,0.0365,0.0366,0.0367,0.034,0,0,0,0,0,0.0283,0.0296,0.0303,0.0314,0.0318,0.0321,0.0324,0.0326,0.0332,0.0335,0.034,0.0344,0.035,0.0353,0.0357,0.0366,0.0347,0.0369,0.037,0.0372,0.0373,0.035,0.035,0.0353,0.0353,0.0353,0,0,0.0284,0.0294,0.0301,0.0314,0.0319,0.0329,0.0323,0.033,0.0339,0.0335,0.0351,0.0352,0.0353,0.0364,0.0367,0.0363,0.0359,0.0372,0.0374,0.0373,0.035,0.035,0.035,0.0354,0.0354,0.0354,0,0,0.029,0.0303,0.0314,0.0321,0.0328,0.0333,0.0336,0.0343,0.0348,0.0361,0.036,0.0364,0.0375,0.0377,0.0379,0.0391,0.0369,0.039,0.0401,0.0379,0.0379,0.0378,0.0347,0.0343,0.039,0.0391,0.0391,0,0.0289,0.031,0.0315,0.0327,0.0338,0.0337,0.0351,0.0355,0.0364,0.0371,0.0369,0.038,0.0382,0.0392,0.0397,0.0395,0.0374,0.0395,0.0381,0.038,0.0379,0.0348,0.0343,0.0392,0.0392,0.0391,0.0391,0,0.0303,0.0321,0.0328,0.0348,0.0357,0.0369,0.0378,0.0386,0.0392,0.0395,0.0406,0.0405,0.0411,0.041,0.041,0.0405,0.0389,0.0386,0.0377,0.038,0.0347,0.0342,0.0393,0.0393,0.0393,0.0392,0,0,0.0301,0.0333,0.0337,0.0354,0.0373,0.0384,0.04,0.0415,0.0428,0.0429,0.0442,0.0446,0.0438,0.0439,0.0433,0.0416,0.0389,0.0399,0.0398,0.0369,0.0331,0.0305,0.0297,0.0383,0.0382,0.0382,0.0308,0,0.0312,0.0344,0.0356,0.0388,0.0407,0.0418,0.0436,0.0448,0.0454,0.0465,0.0456,0.0467,0.0451,0.0456,0.0434,0.0406,0.0379,0.0409,0.0331,0.0328,0.0306,0.0292,0.038,0.0304,0.0303,0.0302,0.0301,0,0.0322,0.0346,0.0381,0.042,0.0429,0.0448,0.048,0.0496,0.0505,0.051,0.0506,0.0496,0.048,0.0465,0.0402,0.0421,0.0376,0.0346,0.0342,0.0308,0.0294,0.0301,0.0292,0.0293,0.0294,0.0294,0.0295,0,0.0325,0.0364,0.0398,0.0411,0.0451,0.0471,0.0493,0.051,0.0534,0.0537,0.0547,0.0518,0.0511,0.0453,0.0388,0.0394,0.0308,0.0309,0.0238,0.0235,0.0271,0.0272,0.0253,0.0253,0.0254,0.0254,0.0254,0,0.0335,0.0362,0.0405,0.0425,0.047,0.0488,0.0532,0.0547,0.057,0.0596,0.0571,0.0572,0.0508,0.0453,0.0388,0.0293,0.0303,0.0232,0.0214,0.0281,0.0285,0.0266,0.0269,0.0251,0.0252,0.0252,0.0253,0,0.0332,0.036,0.0403,0.0453,0.0475,0.0507,0.0571,0.0599,0.0613,0.0643,0.0648,0.0612,0.0537,0.0457,0.0358,0.0295,0.0209,0.0171,0.0239,0.0227,0.0149,0.0153,0.0085,0.0083,0.0082,0.0081,0.008,0,0.0334,0.0355,0.0426,0.046,0.0488,0.0543,0.0585,0.0623,0.0651,0.0663,0.0674,0.0616,0.0577,0.0415,0.0326,0.0185,0.0167,0.0114,0.0138,0.0142,0.0131,0.0138,0.0144,0.0078,0.0078,0.0077,0.0077,0,0.0337,0.0365,0.0406,0.0477,0.053,0.059,0.0645,0.0669,0.0705,0.0718,0.0691,0.0614,0.0523,0.0405,0.0291,0.0194,0.0146,0.01,0.0103,0.0125,0.0133,0.0125,0.0132,0.0072,0.0073,0.0073,0.0074,0,0.0345,0.0371,0.043,0.0492,0.0559,0.0614,0.0647,0.0679,0.0709,0.0718,0.0703,0.0614,0.0567,0.0408,0.0305,0.0203,0.0181,0.0148,0.0147,0.0151,0.0194,0.0216,0.0158,0,0,0,0,0,0.0352,0.0383,0.044,0.051,0.0574,0.0614,0.0679,0.0705,0.0734,0.0718,0.0714,0.063,0.0477,0.0411,0.0304,0.0276,0.0158,0.0145,0.012,0.0048,0.0053,0.009,0,0,0,0,0,0,0.0358,0.041,0.0437,0.0512,0.0557,0.063,0.0672,0.0694,0.0685,0.0695,0.0617,0.0589,0.0442,0.0535,0.0296,0.0266,0.0231,0.008,0.0077,0.0045,0.0049,0.0054,0.0094,0,0,0,0,0]}]]